Location: ???? ?????
(30.0052°N, 31.2891°E)
Time: 20:14:17
(UTC+00:00)

ACS3 Solar Sail - Pass Details

Date: 23 September 2024
Orbit: 960 x 1036 km, 97.4° (Epoch: 09 October)

Event Time Altitude Azimuth Distance (km) Brightness Sun altitude
Rises 08:47:02 0° 336° (NNW) 3,737 4.5 56.5°
Enters shadow 09:41:36 -72° 133° (SE) 13,141 7.2 59.6°
Exits shadow 10:05:42 -45° 46° (NE) 10,354 6.5 59.3°
Maximum altitude 17:06:47 22° 68° (ENE) 2,068 3.0 -17.4°
